| time (UTC) | temp C | wind direction | speed KPH | gust KPH | rain 1hr cm | rain 24hr cm | rain mn cm | humidity % | barometer mb |
| 20260902153503 | 29 | 306 | 1.6 | 6.4 | 0.00 | 0.00 | 0.00 | 43 | 1016.6 |
| 20260902153003 | 29 | 267 | 0.0 | 3.2 | 0.00 | 0.00 | 0.00 | 43 | 1016.8 |
| 20260902152524 | 29 | 0 | 0.0 | 0.0 | 0.00 | 0.00 | 0.00 | 44 | 1016.6 |
| 20260902152003 | 28 | 0 | 0.0 | 0.0 | 0.00 | 0.00 | 0.00 | 44 | 1016.7 |
| 20260902151503 | 29 | 0 | 0.0 | 0.0 | 0.00 | 0.00 | 0.00 | 43 | 1016.9 |
| 20260902151024 | 29 | 0 | 0.0 | 0.0 | 0.00 | 0.00 | 0.00 | 43 | 1016.6 |
| 20260902150503 | 30 | 315 | 0.0 | 3.2 | 0.00 | 0.00 | 0.00 | 44 | 1016.7 |
| 20260902150003 | 30 | 297 | 1.6 | 11.3 | 0.00 | 0.00 | 0.00 | 44 | 1016.9 |
| 20260902145503 | 29 | 295 | 1.6 | 11.3 | 0.00 | 0.00 | 0.00 | 43 | 1016.9 |
| 20260902145003 | 29 | 315 | 1.6 | 6.4 | 0.00 | 0.00 | 0.00 | 43 | 1017.0 |
| 20260902144503 | 29 | 315 | 4.8 | 6.4 | 0.00 | 0.00 | 0.00 | 43 | 1017.0 |
| 20260902144003 | 30 | 315 | 3.2 | 6.4 | 0.00 | 0.00 | 0.00 | 43 | 1017.0 |
| 20260902143503 | 30 | 0 | 0.0 | 0.0 | 0.00 | 0.00 | 0.00 | 43 | 1016.9 |
| 20260902143003 | 30 | 0 | 0.0 | 0.0 | 0.00 | 0.00 | 0.00 | 43 | 1017.0 |
| 20260902142503 | 30 | 247 | 0.0 | 1.6 | 0.00 | 0.00 | 0.00 | 43 | 1017.0 |
| 20260902142003 | 30 | 294 | 0.0 | 1.6 | 0.00 | 0.00 | 0.00 | 42 | 1017.0 |
| 20260902141524 | 30 | 278 | 1.6 | 9.7 | 0.00 | 0.00 | 0.00 | 43 | 1016.9 |
| 20260902141003 | 30 | 308 | 6.4 | 9.7 | 0.00 | 0.00 | 0.00 | 43 | 1017.1 |
| 20260902140503 | 30 | 315 | 6.4 | 9.7 | 0.00 | 0.00 | 0.00 | 44 | 1017.0 |
| 20260902140003 | 30 | 311 | 1.6 | 9.7 | 0.00 | 0.00 | 0.00 | 44 | 1017.2 |
| 20260902135503 | 30 | 311 | 1.6 | 6.4 | 0.00 | 0.00 | 0.00 | 44 | 1017.3 |
| 20260902135003 | 30 | 290 | 4.8 | 11.3 | 0.00 | 0.00 | 0.00 | 44 | 1017.1 |
| 20260902134503 | 30 | 282 | 3.2 | 11.3 | 0.00 | 0.00 | 0.00 | 44 | 1017.4 |
| 20260902134003 | 30 | 315 | 0.0 | 3.2 | 0.00 | 0.00 | 0.00 | 45 | 1017.1 |
| 20260902133524 | 30 | 315 | 1.6 | 11.3 | 0.00 | 0.00 | 0.00 | 44 | 1017.2 |
| 20260902133003 | 30 | 315 | 3.2 | 11.3 | 0.00 | 0.00 | 0.00 | 44 | 1017.3 |
| 20260902132503 | 30 | 271 | 4.8 | 9.7 | 0.00 | 0.00 | 0.00 | 44 | 1017.2 |
| 20260902132003 | 30 | 269 | 6.4 | 11.3 | 0.00 | 0.00 | 0.00 | 44 | 1017.3 |
| 20260902131503 | 30 | 274 | 6.4 | 11.3 | 0.00 | 0.00 | 0.00 | 44 | 1017.3 |
| 20260902131003 | 30 | 283 | 4.8 | 11.3 | 0.00 | 0.00 | 0.00 | 44 | 1017.4 |
| 20260902130503 | 30 | 305 | 1.6 | 1.6 | 0.00 | 0.00 | 0.00 | 46 | 1017.5 |
| 20260902130003 | 30 | 249 | 3.2 | 9.7 | 0.00 | 0.00 | 0.00 | 46 | 1017.5 |
| 20260902125524 | 30 | 247 | 3.2 | 9.7 | 0.00 | 0.00 | 0.00 | 46 | 1017.6 |
| 20260902125024 | 30 | 226 | 1.6 | 9.7 | 0.00 | 0.00 | 0.00 | 47 | 1017.8 |
| 20260902124524 | 30 | 233 | 3.2 | 9.7 | 0.00 | 0.00 | 0.00 | 47 | 1017.8 |
| 20260902124003 | 30 | 270 | 1.6 | 8.0 | 0.00 | 0.00 | 0.00 | 46 | 1017.7 |
| 20260902123503 | 30 | 245 | 1.6 | 4.8 | 0.00 | 0.00 | 0.00 | 47 | 1017.9 |
| 20260902123003 | 30 | 133 | 1.6 | 4.8 | 0.00 | 0.00 | 0.00 | 48 | 1017.8 |
| 20260902122503 | 29 | 360 | 0.0 | 3.2 | 0.00 | 0.00 | 0.00 | 50 | 1017.9 |
| 20260902122003 | 29 | 10 | 1.6 | 9.7 | 0.00 | 0.00 | 0.00 | 50 | 1017.9 |
| 20260902121503 | 29 | 14 | 1.6 | 9.7 | 0.00 | 0.00 | 0.00 | 50 | 1018.0 |
| 20260902121003 | 29 | 0 | 0.0 | 0.0 | 0.00 | 0.00 | 0.00 | 50 | 1017.9 |
| 20260902120503 | 28 | 0 | 0.0 | 0.0 | 0.00 | 0.00 | 0.00 | 50 | 1018.0 |
| 20260902120003 | 28 | 0 | 0.0 | 0.0 | 0.00 | 0.00 | 0.00 | 50 | 1018.3 |
| 20260902115524 | 28 | 0 | 0.0 | 0.0 | 0.00 | 0.00 | 0.00 | 50 | 1018.3 |
| 20260902115003 | 28 | 0 | 0.0 | 0.0 | 0.00 | 0.00 | 0.00 | 50 | 1018.5 |
| 20260902114505 | 28 | 247 | 0.0 | 3.2 | 0.00 | 0.00 | 0.00 | 50 | 1018.3 |
| 20260902114005 | 29 | 227 | 1.6 | 6.4 | 0.00 | 0.00 | 0.00 | 50 | 1018.4 |
| 20260902113505 | 29 | 195 | 1.6 | 6.4 | 0.00 | 0.00 | 0.00 | 50 | 1018.5 |
| 20260902113026 | 29 | 91 | 1.6 | 6.4 | 0.00 | 0.00 | 0.00 | 51 | 1018.6 |
| 20260902112505 | 29 | 174 | 1.6 | 8.0 | 0.00 | 0.00 | 0.00 | 51 | 1018.6 |
| 20260902112005 | 28 | 244 | 3.2 | 8.0 | 0.00 | 0.00 | 0.00 | 51 | 1018.6 |
| 20260902111505 | 28 | 294 | 3.2 | 8.0 | 0.00 | 0.00 | 0.00 | 51 | 1018.7 |
| 20260902111005 | 28 | 313 | 4.8 | 8.0 | 0.00 | 0.10 | 0.00 | 52 | 1018.7 |
| 20260902110505 | 28 | 299 | 4.8 | 8.0 | 0.00 | 0.13 | 0.00 | 52 | 1018.8 |
| 20260902110007 | 28 | 258 | 1.6 | 8.0 | 0.00 | 0.13 | 0.00 | 52 | 1018.9 |
| 20260902105505 | 28 | 224 | 0.0 | 1.6 | 0.00 | 0.13 | 0.00 | 53 | 1019.0 |
| 20260902105005 | 28 | 0 | 0.0 | 0.0 | 0.00 | 0.13 | 0.00 | 54 | 1019.0 |
| 20260902104505 | 27 | 0 | 0.0 | 0.0 | 0.00 | 0.13 | 0.00 | 54 | 1019.0 |
| 20260902104005 | 27 | 54 | 1.6 | 4.8 | 0.00 | 0.71 | 0.00 | 54 | 1019.0 |
| 20260902103505 | 27 | 37 | 1.6 | 4.8 | 0.00 | 0.84 | 0.00 | 58 | 1019.0 |
| 20260902103005 | 27 | 32 | 1.6 | 4.8 | 0.00 | 1.75 | 0.00 | 58 | 1019.1 |
| 20260902102505 | 27 | 3 | 0.0 | 3.2 | 0.00 | 2.11 | 0.00 | 55 | 1019.0 |
| 20260902102005 | 27 | 315 | 0.0 | 3.2 | 0.00 | 2.11 | 0.00 | 59 | 1019.1 |
| 20260902101505 | 27 | 0 | 0.0 | 0.0 | 0.00 | 2.11 | 0.00 | 59 | 1019.0 |
| 20260902101005 | 27 | 0 | 0.0 | 0.0 | 0.00 | 2.11 | 0.00 | 59 | 1019.1 |
| 20260902100505 | 27 | 0 | 0.0 | 0.0 | 0.00 | 2.11 | 0.00 | 59 | 1019.2 |
| 20260902100005 | 27 | 178 | 1.6 | 8.0 | 0.00 | 2.11 | 0.00 | 59 | 1019.3 |
| 20260902095505 | 27 | 180 | 1.6 | 8.0 | 0.00 | 2.11 | 0.00 | 59 | 1019.1 |
| 20260902095005 | 27 | 170 | 1.6 | 8.0 | 0.00 | 2.11 | 0.00 | 55 | 1019.2 |
| 20260902094505 | 27 | 0 | 0.0 | 0.0 | 0.00 | 2.11 | 0.00 | 60 | 1019.4 |
| 20260902094005 | 26 | 0 | 0.0 | 0.0 | 0.00 | 2.11 | 0.00 | 61 | 1019.4 |
| 20260902093505 | 26 | 315 | 0.0 | 1.6 | 0.00 | 2.11 | 0.00 | 61 | 1019.5 |
| 20260902093005 | 26 | 315 | 1.6 | 3.2 | 0.00 | 2.11 | 0.00 | 61 | 1019.3 |
| 20260902092505 | 26 | 267 | 1.6 | 6.4 | 0.00 | 2.11 | 0.00 | 60 | 1019.4 |
| 20260902092005 | 26 | 202 | 0.0 | 6.4 | 0.00 | 2.11 | 0.00 | 60 | 1019.5 |
| 20260902091526 | 27 | 202 | 0.0 | 6.4 | 0.00 | 2.11 | 0.00 | 61 | 1019.4 |
| 20260902091005 | 27 | 0 | 0.0 | 0.0 | 0.00 | 2.11 | 0.00 | 61 | 1019.5 |
| 20260902090505 | 26 | 0 | 0.0 | 0.0 | 0.00 | 2.11 | 0.00 | 61 | 1019.5 |
| 20260902090005 | 26 | 179 | 1.6 | 9.7 | 0.00 | 2.11 | 0.00 | 61 | 1019.5 |
| 20260902085505 | 26 | 146 | 4.8 | 9.7 | 0.00 | 2.11 | 0.00 | 60 | 1019.5 |
| 20260902085005 | 26 | 120 | 3.2 | 9.7 | 0.00 | 2.11 | 0.00 | 61 | 1019.4 |
| 20260902084505 | 26 | 157 | 1.6 | 6.4 | 0.00 | 2.11 | 0.00 | 62 | 1019.3 |
| 20260902084005 | 26 | 154 | 1.6 | 6.4 | 0.00 | 2.11 | 0.00 | 62 | 1019.3 |
| 20260902083526 | 26 | 112 | 0.0 | 3.2 | 0.00 | 2.11 | 0.00 | 62 | 1019.3 |
| 20260902083005 | 25 | 176 | 0.0 | 4.8 | 0.00 | 2.13 | 0.00 | 63 | 1019.2 |
| 20260902082505 | 25 | 152 | 1.6 | 6.4 | 0.00 | 2.13 | 0.00 | 62 | 1019.2 |
| 20260902082005 | 25 | 135 | 1.6 | 6.4 | 0.00 | 2.13 | 0.00 | 62 | 1019.2 |
| 20260902081505 | 25 | 0 | 0.0 | 0.0 | 0.00 | 2.13 | 0.00 | 64 | 1019.3 |
| 20260902081005 | 25 | 0 | 0.0 | 0.0 | 0.00 | 2.13 | 0.00 | 65 | 1019.3 |
| 20260902080505 | 25 | 0 | 0.0 | 0.0 | 0.00 | 2.13 | 0.00 | 66 | 1019.3 |
| 20260902080005 | 25 | 0 | 0.0 | 0.0 | 0.00 | 2.13 | 0.00 | 66 | 1019.1 |
| 20260902075505 | 25 | 0 | 0.0 | 0.0 | 0.00 | 2.13 | 0.00 | 69 | 1019.2 |
| 20260902075026 | 25 | 67 | 0.0 | 1.6 | 0.00 | 2.13 | 0.00 | 69 | 1019.2 |
| 20260902074505 | 24 | 30 | 1.6 | 6.4 | 0.00 | 2.13 | 0.00 | 69 | 1019.1 |
| 20260902074005 | 23 | 28 | 1.6 | 6.4 | 0.00 | 2.13 | 0.00 | 68 | 1019.0 |
| 20260902073505 | 23 | 11 | 1.6 | 6.4 | 0.00 | 2.13 | 0.00 | 68 | 1019.2 |
| 20260902073005 | 23 | 12 | 3.2 | 6.4 | 0.00 | 2.13 | 0.00 | 68 | 1019.2 |
| 20260902072505 | 23 | 16 | 1.6 | 6.4 | 0.00 | 2.13 | 0.00 | 68 | 1019.1 |
| 20260902072005 | 23 | 22 | 0.0 | 6.4 | 0.00 | 2.13 | 0.00 | 69 | 1019.2 |
| 20260902071505 | 23 | 51 | 1.6 | 6.4 | 0.00 | 2.13 | 0.00 | 69 | 1019.2 |
| 20260902071026 | 23 | 29 | 3.2 | 6.4 | 0.00 | 2.13 | 0.00 | 69 | 1019.0 |
| 20260902070505 | 24 | 27 | 3.2 | 6.4 | 0.00 | 2.13 | 0.00 | 69 | 1019.1 |
| 20260902070007 | 24 | 51 | 1.6 | 3.2 | 0.00 | 2.13 | 0.00 | 69 | 1018.8 |
| 20260902065526 | 24 | 0 | 0.0 | 0.0 | 0.00 | 2.13 | 0.00 | 70 | 1018.9 |
| 20260902065005 | 23 | 44 | 0.0 | 3.2 | 0.00 | 2.13 | 0.00 | 71 | 1018.8 |
| 20260902064526 | 23 | 44 | 0.0 | 3.2 | 0.00 | 2.13 | 0.00 | 71 | 1018.8 |
| 20260902064005 | 22 | 22 | 1.6 | 6.4 | 0.00 | 2.13 | 0.00 | 72 | 1018.8 |
| 20260902063505 | 22 | 12 | 3.2 | 6.4 | 0.00 | 2.13 | 0.00 | 72 | 1018.6 |
| 20260902063005 | 22 | 1 | 3.2 | 6.4 | 0.00 | 2.13 | 0.00 | 72 | 1018.8 |
| 20260902062505 | 22 | 4 | 1.6 | 6.4 | 0.00 | 2.13 | 0.00 | 73 | 1018.9 |
| 20260902062005 | 22 | 9 | 3.2 | 8.0 | 0.00 | 2.13 | 0.00 | 76 | 1018.7 |
| 20260902061505 | 21 | 13 | 4.8 | 8.0 | 0.00 | 2.13 | 0.00 | 77 | 1018.6 |
| 20260902061005 | 21 | 18 | 3.2 | 8.0 | 0.00 | 2.13 | 0.00 | 77 | 1018.6 |
| 20260902060505 | 21 | 5 | 0.0 | 6.4 | 0.00 | 2.13 | 0.00 | 78 | 1018.7 |
| 20260902060005 | 21 | 15 | 3.2 | 6.4 | 0.00 | 2.13 | 0.00 | 78 | 1018.7 |
| 20260902055505 | 21 | 17 | 3.2 | 6.4 | 0.00 | 2.13 | 0.00 | 78 | 1018.5 |
| 20260902055005 | 21 | 12 | 1.6 | 4.8 | 0.00 | 2.13 | 0.00 | 79 | 1018.5 |
| 20260902054505 | 20 | 11 | 1.6 | 6.4 | 0.00 | 2.13 | 0.00 | 79 | 1018.5 |
| 20260902054026 | 20 | 9 | 1.6 | 6.4 | 0.00 | 2.13 | 0.00 | 79 | 1018.5 |
| 20260902053505 | 20 | 360 | 0.0 | 3.2 | 0.00 | 2.13 | 0.00 | 79 | 1018.4 |
| 20260902053005 | 20 | 0 | 0.0 | 0.0 | 0.00 | 2.13 | 0.00 | 79 | 1018.6 |
| 20260902052526 | 20 | 0 | 0.0 | 0.0 | 0.00 | 2.13 | 0.00 | 79 | 1018.4 |
| 20260902052005 | 20 | 0 | 0.0 | 0.0 | 0.00 | 2.13 | 0.00 | 79 | 1018.4 |
| 20260902051505 | 20 | 0 | 0.0 | 0.0 | 0.00 | 2.13 | 0.00 | 79 | 1018.1 |
| 20260902051026 | 20 | 0 | 0.0 | 0.0 | 0.00 | 2.13 | 0.00 | 79 | 1017.9 |
| 20260902050505 | 20 | 0 | 0.0 | 0.0 | 0.00 | 2.13 | 0.00 | 78 | 1018.1 |
| 20260902050007 | 20 | 0 | 0.0 | 0.0 | 0.00 | 2.13 | 0.00 | 78 | 1018.4 |
| 20260902045505 | 20 | 0 | 0.0 | 0.0 | 0.00 | 2.13 | 0.00 | 78 | 1018.1 |
| 20260902045005 | 20 | 0 | 0.0 | 0.0 | 0.00 | 2.13 | 0.00 | 78 | 1018.0 |
| 20260902044505 | 20 | 15 | 0.0 | 3.2 | 0.00 | 2.13 | 0.00 | 78 | 1018.1 |
| 20260902044005 | 20 | 17 | 1.6 | 3.2 | 0.00 | 2.13 | 0.00 | 78 | 1018.1 |
| 20260902043505 | 20 | 5 | 1.6 | 4.8 | 0.00 | 2.13 | 0.00 | 77 | 1017.9 |
| 20260902043005 | 20 | 2 | 3.2 | 6.4 | 0.00 | 2.13 | 0.00 | 77 | 1018.1 |
| 20260902042526 | 20 | 5 | 4.8 | 6.4 | 0.00 | 2.13 | 0.00 | 76 | 1018.0 |
| 20260902042005 | 20 | 9 | 3.2 | 6.4 | 0.00 | 2.13 | 0.00 | 76 | 1017.9 |
| 20260902041505 | 20 | 19 | 0.0 | 3.2 | 0.00 | 2.13 | 0.00 | 76 | 1017.9 |
| 20260902041005 | 20 | 0 | 0.0 | 0.0 | 0.00 | 2.13 | 0.00 | 76 | 1017.9 |
| 20260902040505 | 21 | 0 | 0.0 | 0.0 | 0.00 | 2.13 | 0.00 | 75 | 1017.9 |
| 20260902040005 | 21 | 0 | 0.0 | 0.0 | 0.00 | 2.13 | 0.00 | 75 | 1018.0 |
| 20260902035505 | 21 | 0 | 0.0 | 0.0 | 0.00 | 2.13 | 0.00 | 75 | 1017.9 |
| 20260902035005 | 21 | 15 | 1.6 | 4.8 | 0.00 | 2.13 | 0.00 | 76 | 1017.9 |
| 20260902034505 | 21 | 17 | 1.6 | 4.8 | 0.00 | 2.13 | 0.00 | 76 | 1017.7 |
| 20260902034005 | 21 | 22 | 0.0 | 4.8 | 0.00 | 2.13 | 0.00 | 76 | 1017.7 |
| 20260902033505 | 21 | 0 | 0.0 | 0.0 | 0.00 | 2.13 | 0.00 | 76 | 1017.9 |
| 20260902033005 | 21 | 0 | 0.0 | 0.0 | 0.00 | 2.13 | 0.00 | 76 | 1018.1 |
| 20260902032505 | 21 | 22 | 1.6 | 4.8 | 0.00 | 2.13 | 0.00 | 76 | 1018.0 |
| 20260902032005 | 21 | 22 | 1.6 | 4.8 | 0.00 | 2.13 | 0.00 | 76 | 1018.1 |
| 20260902031505 | 20 | 0 | 0.0 | 0.0 | 0.00 | 2.13 | 0.00 | 76 | 1018.1 |
| 20260902031005 | 20 | 0 | 0.0 | 0.0 | 0.00 | 2.13 | 0.00 | 75 | 1018.0 |
| 20260902030505 | 20 | 0 | 0.0 | 0.0 | 0.00 | 2.13 | 0.00 | 75 | 1017.9 |
| 20260902030005 | 21 | 11 | 0.0 | 3.2 | 0.00 | 2.13 | 0.00 | 75 | 1018.1 |
| 20260902025505 | 21 | 11 | 0.0 | 3.2 | 0.00 | 2.13 | 0.00 | 75 | 1018.0 |
| 20260902025026 | 21 | 0 | 0.0 | 0.0 | 0.00 | 2.13 | 0.00 | 75 | 1018.0 |
| 20260902024505 | 21 | 0 | 0.0 | 0.0 | 0.00 | 2.13 | 0.00 | 75 | 1017.7 |
| 20260902024005 | 21 | 11 | 3.2 | 6.4 | 0.00 | 2.13 | 0.00 | 74 | 1018.0 |
| 20260902023505 | 21 | 12 | 6.4 | 8.0 | 0.00 | 2.13 | 0.00 | 74 | 1017.9 |
| 20260902023005 | 21 | 16 | 6.4 | 8.0 | 0.00 | 2.13 | 0.00 | 74 | 1018.0 |
| 20260902022505 | 21 | 8 | 4.8 | 8.0 | 0.00 | 2.13 | 0.00 | 74 | 1017.9 |
| 20260902022005 | 21 | 352 | 3.2 | 6.4 | 0.00 | 2.13 | 0.00 | 74 | 1017.9 |
| 20260902021505 | 21 | 6 | 3.2 | 4.8 | 0.00 | 2.13 | 0.00 | 74 | 1017.9 |
| 20260902021005 | 21 | 17 | 3.2 | 4.8 | 0.00 | 2.13 | 0.00 | 74 | 1017.9 |
| 20260902020505 | 21 | 18 | 4.8 | 6.4 | 0.00 | 2.13 | 0.00 | 74 | 1017.9 |
| 20260902020026 | 21 | 17 | 4.8 | 6.4 | 0.00 | 2.13 | 0.00 | 74 | 1017.7 |
| 20260902015505 | 21 | 22 | 1.6 | 6.4 | 0.00 | 2.13 | 0.00 | 74 | 1017.7 |
| 20260902015005 | 21 | 0 | 0.0 | 0.0 | 0.00 | 2.13 | 0.00 | 74 | 1017.8 |
| 20260902014505 | 21 | 22 | 0.0 | 3.2 | 0.00 | 2.13 | 0.00 | 75 | 1017.8 |
| 20260902014005 | 21 | 9 | 1.6 | 4.8 | 0.00 | 2.13 | 0.00 | 75 | 1017.8 |
| 20260902013505 | 21 | 7 | 1.6 | 4.8 | 0.00 | 2.13 | 0.00 | 74 | 1017.8 |
| 20260902013005 | 21 | 0 | 0.0 | 0.0 | 0.00 | 2.13 | 0.00 | 74 | 1017.8 |
| 20260902012505 | 21 | 0 | 0.0 | 0.0 | 0.00 | 2.13 | 0.00 | 74 | 1017.8 |
| 20260902012026 | 21 | 0 | 0.0 | 0.0 | 0.00 | 2.13 | 0.00 | 74 | 1017.9 |
| 20260902011505 | 21 | 0 | 0.0 | 0.0 | 0.00 | 2.13 | 0.00 | 75 | 1017.6 |
| 20260902011005 | 21 | 16 | 3.2 | 8.0 | 0.00 | 2.13 | 0.00 | 75 | 1017.9 |
| 20260902010505 | 21 | 14 | 6.4 | 8.0 | 0.00 | 2.13 | 0.00 | 76 | 1017.8 |
| 20260902010005 | 21 | 9 | 4.8 | 8.0 | 0.00 | 2.13 | 0.00 | 76 | 1017.9 |
| 20260902005505 | 21 | 5 | 1.6 | 6.4 | 0.00 | 2.13 | 0.00 | 76 | 1018.0 |
| 20260902005005 | 21 | 337 | 0.0 | 3.2 | 0.00 | 2.13 | 0.00 | 75 | 1018.0 |
| 20260902004526 | 21 | 337 | 0.0 | 3.2 | 0.00 | 2.13 | 0.00 | 75 | 1017.9 |
| 20260902004005 | 21 | 0 | 0.0 | 0.0 | 0.00 | 2.13 | 0.00 | 75 | 1017.9 |
| 20260902003505 | 21 | 0 | 0.0 | 0.0 | 0.00 | 2.13 | 0.00 | 74 | 1018.0 |
| 20260902003005 | 21 | 0 | 0.0 | 0.0 | 0.00 | 2.13 | 0.00 | 74 | 1017.9 |
| 20260902002526 | 21 | 0 | 0.0 | 0.0 | 0.00 | 2.13 | 0.00 | 74 | 1017.7 |
| 20260902002005 | 21 | 0 | 0.0 | 0.0 | 0.00 | 2.13 | 0.00 | 75 | 1018.0 |
| 20260902001505 | 21 | 360 | 0.0 | 3.2 | 0.00 | 2.13 | 0.00 | 75 | 1018.0 |
| 20260902001005 | 21 | 360 | 1.6 | 3.2 | 0.00 | 2.13 | 0.00 | 75 | 1018.0 |
| 20260902000505 | 21 | 354 | 1.6 | 3.2 | 0.00 | 2.13 | 0.00 | 74 | 1017.7 |
| 20260902000005 | 21 | 325 | 0.0 | 3.2 | 0.00 | 2.13 | 0.00 | 74 | 1018.1 |
| 20260901235505 | 21 | 0 | 0.0 | 0.0 | 0.00 | 2.13 | 0.00 | 74 | 1017.9 |
| 20260901235005 | 21 | 0 | 0.0 | 0.0 | 0.00 | 2.13 | 0.00 | 74 | 1018.0 |
| 20260901234505 | 21 | 360 | 0.0 | 4.8 | 0.00 | 2.13 | 0.00 | 74 | 1018.0 |
| 20260901234005 | 21 | 360 | 1.6 | 4.8 | 0.00 | 2.13 | 0.00 | 74 | 1017.9 |
| 20260901233505 | 21 | 360 | 1.6 | 4.8 | 0.00 | 2.13 | 0.00 | 74 | 1018.0 |
| 20260901233005 | 21 | 360 | 0.0 | 3.2 | 0.00 | 2.13 | 0.00 | 74 | 1017.9 |
| 20260901232505 | 21 | 0 | 0.0 | 0.0 | 0.00 | 2.13 | 0.00 | 73 | 1017.7 |
| 20260901232005 | 22 | 0 | 0.0 | 0.0 | 0.00 | 2.13 | 0.00 | 73 | 1017.9 |
| 20260901231505 | 22 | 0 | 0.0 | 0.0 | 0.00 | 2.13 | 0.00 | 73 | 1018.1 |
| 20260901231003 | 22 | 0 | 0.0 | 0.0 | 0.00 | 2.13 | 0.00 | 73 | 1017.9 |
| 20260901230503 | 22 | 0 | 0.0 | 0.0 | 0.00 | 2.13 | 0.00 | 73 | 1017.9 |
| 20260901230024 | 22 | 15 | 1.6 | 3.2 | 0.00 | 2.13 | 0.00 | 73 | 1018.0 |
| 20260901225503 | 22 | 15 | 1.6 | 3.2 | 0.00 | 2.13 | 0.00 | 72 | 1018.1 |
| 20260901225003 | 22 | 0 | 0.0 | 0.0 | 0.00 | 2.13 | 0.00 | 72 | 1018.1 |
| 20260901224503 | 22 | 0 | 0.0 | 0.0 | 0.00 | 2.13 | 0.00 | 72 | 1017.9 |
| 20260901224003 | 22 | 0 | 0.0 | 0.0 | 0.00 | 2.13 | 0.00 | 72 | 1017.9 |
| 20260901223503 | 22 | 0 | 0.0 | 0.0 | 0.00 | 2.13 | 0.00 | 70 | 1018.1 |
| 20260901223003 | 22 | 32 | 0.0 | 3.2 | 0.00 | 2.13 | 0.00 | 70 | 1017.9 |
| 20260901222503 | 22 | 14 | 3.2 | 6.4 | 0.00 | 2.13 | 0.00 | 70 | 1018.1 |
| 20260901222003 | 22 | 9 | 4.8 | 6.4 | 0.00 | 2.13 | 0.00 | 70 | 1018.0 |
| 20260901221503 | 22 | 356 | 4.8 | 6.4 | 0.00 | 2.13 | 0.00 | 70 | 1018.1 |
| 20260901221003 | 22 | 355 | 4.8 | 6.4 | 0.00 | 2.13 | 0.00 | 70 | 1018.0 |
| 20260901220503 | 22 | 2 | 4.8 | 6.4 | 0.00 | 2.13 | 0.00 | 69 | 1017.9 |
| 20260901220024 | 22 | 8 | 4.8 | 6.4 | 0.00 | 2.13 | 0.00 | 69 | 1018.0 |
| 20260901215503 | 22 | 12 | 3.2 | 6.4 | 0.00 | 2.13 | 2.13 | 69 | 1017.8 |
| 20260901215003 | 22 | 4 | 1.6 | 6.4 | 0.00 | 2.13 | 2.13 | 69 | 1017.9 |
| 20260901214503 | 22 | 347 | 0.0 | 3.2 | 0.00 | 2.13 | 2.13 | 69 | 1018.0 |
| 20260901214003 | 22 | 360 | 0.0 | 3.2 | 0.00 | 2.13 | 2.13 | 68 | 1017.8 |
| 20260901213524 | 22 | 0 | 0.0 | 0.0 | 0.00 | 2.13 | 2.13 | 68 | 1018.0 |
| 20260901213003 | 22 | 0 | 0.0 | 0.0 | 0.00 | 2.13 | 2.13 | 68 | 1018.0 |
| 20260901212503 | 22 | 0 | 0.0 | 0.0 | 0.00 | 2.13 | 2.13 | 68 | 1018.0 |
| 20260901212003 | 22 | 0 | 0.0 | 0.0 | 0.00 | 2.13 | 2.13 | 67 | 1018.0 |
| 20260901211503 | 22 | 0 | 0.0 | 0.0 | 0.00 | 2.13 | 2.13 | 67 | 1018.0 |
| 20260901211003 | 23 | 0 | 0.0 | 0.0 | 0.00 | 2.13 | 2.13 | 66 | 1017.9 |
| 20260901210503 | 23 | 0 | 0.0 | 0.0 | 0.00 | 2.13 | 2.13 | 66 | 1017.8 |
| 20260901210003 | 23 | 0 | 0.0 | 0.0 | 0.00 | 2.13 | 2.13 | 65 | 1017.8 |
| 20260901205503 | 23 | 0 | 0.0 | 0.0 | 0.00 | 2.13 | 2.13 | 65 | 1018.0 |
| 20260901205003 | 23 | 44 | 0.0 | 1.6 | 0.00 | 2.13 | 2.13 | 64 | 1017.9 |
| 20260901204503 | 23 | 30 | 0.0 | 3.2 | 0.00 | 2.13 | 2.13 | 64 | 1018.0 |
| 20260901204003 | 23 | 22 | 0.0 | 3.2 | 0.00 | 2.13 | 2.13 | 63 | 1017.9 |
| 20260901203524 | 23 | 22 | 0.0 | 3.2 | 0.00 | 2.13 | 2.13 | 63 | 1017.8 |
| 20260901203003 | 23 | 0 | 0.0 | 0.0 | 0.00 | 2.13 | 2.13 | 63 | 1017.8 |
| 20260901202503 | 23 | 0 | 0.0 | 0.0 | 0.00 | 2.13 | 2.13 | 63 | 1017.8 |
| 20260901202003 | 23 | 0 | 0.0 | 0.0 | 0.00 | 2.13 | 2.13 | 63 | 1017.8 |
| 20260901201503 | 23 | 0 | 0.0 | 0.0 | 0.00 | 2.13 | 2.13 | 63 | 1017.8 |
| 20260901201003 | 24 | 0 | 0.0 | 0.0 | 0.00 | 2.13 | 2.13 | 62 | 1017.8 |
| 20260901200503 | 24 | 0 | 0.0 | 0.0 | 0.00 | 2.13 | 2.13 | 62 | 1017.7 |
| 20260901200003 | 24 | 0 | 0.0 | 0.0 | 0.00 | 2.13 | 2.13 | 62 | 1017.7 |
| 20260901195503 | 24 | 0 | 0.0 | 0.0 | 0.00 | 2.13 | 2.13 | 62 | 1017.7 |
| 20260901195024 | 24 | 0 | 0.0 | 0.0 | 0.00 | 2.13 | 2.13 | 62 | 1017.8 |
| 20260901194503 | 24 | 0 | 0.0 | 0.0 | 0.00 | 2.13 | 2.13 | 62 | 1017.6 |
| 20260901194003 | 24 | 22 | 0.0 | 3.2 | 0.00 | 2.13 | 2.13 | 62 | 1017.4 |
| 20260901193503 | 24 | 22 | 0.0 | 4.8 | 0.00 | 2.13 | 2.13 | 62 | 1017.5 |
| 20260901193003 | 24 | 22 | 0.0 | 4.8 | 0.00 | 2.13 | 2.13 | 62 | 1017.7 |
| 20260901192503 | 24 | 0 | 0.0 | 0.0 | 0.00 | 2.13 | 2.13 | 62 | 1017.5 |
| 20260901192003 | 24 | 0 | 0.0 | 0.0 | 0.00 | 2.13 | 2.13 | 62 | 1017.5 |
| 20260901191503 | 25 | 0 | 0.0 | 0.0 | 0.00 | 2.13 | 2.13 | 61 | 1017.4 |
| 20260901191024 | 25 | 0 | 0.0 | 0.0 | 0.00 | 2.13 | 2.13 | 61 | 1017.3 |
| 20260901190503 | 25 | 0 | 0.0 | 0.0 | 0.00 | 2.13 | 2.13 | 61 | 1017.4 |
| 20260901190003 | 25 | 0 | 0.0 | 0.0 | 0.00 | 2.13 | 2.13 | 61 | 1017.2 |
| 20260901185524 | 25 | 0 | 0.0 | 0.0 | 0.00 | 2.13 | 2.13 | 60 | 1017.1 |
| 20260901185003 | 25 | 0 | 0.0 | 0.0 | 0.00 | 2.13 | 2.13 | 60 | 1017.1 |
| 20260901184503 | 25 | 0 | 0.0 | 0.0 | 0.00 | 2.13 | 2.13 | 59 | 1017.0 |
| 20260901184003 | 25 | 0 | 0.0 | 0.0 | 0.00 | 2.13 | 2.13 | 59 | 1017.0 |
| 20260901183524 | 25 | 0 | 0.0 | 0.0 | 0.00 | 2.13 | 2.13 | 59 | 1016.9 |
| 20260901183003 | 25 | 0 | 0.0 | 0.0 | 0.00 | 2.13 | 2.13 | 58 | 1016.9 |
| 20260901182503 | 25 | 0 | 0.0 | 0.0 | 0.00 | 2.13 | 2.13 | 59 | 1017.0 |
| 20260901182003 | 25 | 0 | 0.0 | 0.0 | 0.00 | 2.13 | 2.13 | 59 | 1016.9 |
| 20260901181503 | 25 | 0 | 0.0 | 0.0 | 0.00 | 2.13 | 2.13 | 58 | 1017.1 |
| 20260901181003 | 25 | 0 | 0.0 | 0.0 | 0.00 | 2.13 | 2.13 | 58 | 1016.8 |
| 20260901180503 | 26 | 0 | 0.0 | 0.0 | 0.00 | 2.13 | 2.13 | 57 | 1016.9 |
| 20260901180024 | 26 | 0 | 0.0 | 0.0 | 0.00 | 2.13 | 2.13 | 57 | 1016.8 |
| 20260901175503 | 26 | 0 | 0.0 | 0.0 | 0.00 | 2.13 | 2.13 | 56 | 1016.8 |
| 20260901175003 | 26 | 0 | 0.0 | 0.0 | 0.00 | 2.13 | 2.13 | 56 | 1016.8 |
| 20260901174503 | 26 | 0 | 0.0 | 0.0 | 0.00 | 2.13 | 2.13 | 56 | 1016.6 |
| 20260901174003 | 26 | 0 | 0.0 | 0.0 | 0.00 | 2.13 | 2.13 | 56 | 1016.7 |
| 20260901173503 | 26 | 0 | 0.0 | 0.0 | 0.00 | 2.13 | 2.13 | 56 | 1016.6 |
| 20260901173003 | 26 | 0 | 0.0 | 0.0 | 0.00 | 2.13 | 2.13 | 56 | 1016.6 |
| 20260901172503 | 26 | 0 | 0.0 | 0.0 | 0.00 | 2.13 | 2.13 | 56 | 1016.7 |
| 20260901172003 | 26 | 0 | 0.0 | 0.0 | 0.00 | 2.13 | 2.13 | 55 | 1016.4 |
| 20260901171503 | 27 | 0 | 0.0 | 0.0 | 0.00 | 2.13 | 2.13 | 55 | 1016.5 |
| 20260901171024 | 27 | 0 | 0.0 | 0.0 | 0.00 | 2.13 | 2.13 | 54 | 1016.4 |
| 20260901170503 | 27 | 0 | 0.0 | 0.0 | 0.00 | 2.13 | 2.13 | 53 | 1016.7 |
| 20260901170003 | 27 | 0 | 0.0 | 0.0 | 0.00 | 2.13 | 2.13 | 50 | 1016.5 |
| 20260901165503 | 27 | 0 | 0.0 | 0.0 | 0.00 | 2.13 | 2.13 | 49 | 1016.8 |
| 20260901165004 | 27 | 0 | 0.0 | 0.0 | 0.00 | 2.13 | 2.13 | 48 | 1016.6 |
| 20260901164503 | 28 | 0 | 0.0 | 0.0 | 0.00 | 2.13 | 2.13 | 46 | 1016.6 |
| 20260901164024 | 28 | 0 | 0.0 | 0.0 | 0.00 | 2.13 | 2.13 | 45 | 1016.6 |
| 20260901163524 | 28 | 135 | 1.6 | 4.8 | 0.00 | 2.13 | 2.13 | 45 | 1016.7 |
| 20260901163003 | 28 | 135 | 1.6 | 4.8 | 0.00 | 2.13 | 2.13 | 45 | 1016.8 |
| 20260901162503 | 28 | 205 | 1.6 | 4.8 | 0.00 | 2.13 | 2.13 | 45 | 1016.4 |
| 20260901162024 | 28 | 179 | 1.6 | 9.7 | 0.00 | 2.13 | 2.13 | 45 | 1016.7 |
| 20260901161503 | 28 | 202 | 4.8 | 9.7 | 0.00 | 2.13 | 2.13 | 45 | 1016.8 |
| 20260901161003 | 28 | 210 | 3.2 | 8.0 | 0.00 | 2.13 | 2.13 | 45 | 1016.8 |
| 20260901160503 | 29 | 0 | 0.0 | 0.0 | 0.00 | 2.13 | 2.13 | 44 | 1016.7 |
| 20260901160024 | 29 | 0 | 0.0 | 0.0 | 0.00 | 2.13 | 2.13 | 44 | 1016.8 |
| 20260901155503 | 29 | 202 | 1.6 | 6.4 | 0.00 | 2.13 | 2.13 | 44 | 1016.7 |
| 20260901155003 | 29 | 195 | 1.6 | 6.4 | 0.00 | 2.13 | 2.13 | 44 | 1016.8 |
| 20260901154503 | 29 | 182 | 1.6 | 6.4 | 0.00 | 2.13 | 2.13 | 44 | 1016.8 |
| 20260901154024 | 29 | 181 | 4.8 | 12.9 | 0.00 | 2.13 | 2.13 | 44 | 1016.8 |